Middlesboro, KY

2:29 AM EDT on August 25, 2016 (GMT -0400)
Middlesboro

Weather History for K1A6 - July, 2013

Change the Weather History Date:

Thursday, July 4, 2013

  Actual Average (KLOZ) Record (KLOZ)
Temperature  
Mean Temperature 70 °F 76 °F  
Max Temperature 77 °F 86 °F 98 °F (2012)
Min Temperature 64 °F 66 °F 51 °F (1961)
Degree Days  
Heating Degree Days 0 0  
Month to date heating degree days 0  
Since 1 June heating degree days 9  
Since 1 July heating degree days 0  
Cooling Degree Days 6 11  
Month to date cooling degree days 44  
Year to date cooling degree days 401  
Since 1 June cooling degree days 287  
Growing Degree Days 20 (Base 50)    
Moisture  
Dew Point 67 °F    
Average Humidity 91    
Maximum Humidity 99    
Minimum Humidity 75    
Precipitation  
Precipitation 1.30 in 0.14 in 1.64 in (1965)
Month to date precipitation 0.54  
Sea Level Pressure  
Sea Level Pressure 30.18 in    
Wind  
Wind Speed 0 mph (SSE)    
Max Wind Speed 5 mph    
Max Gust Speed -    
Visibility 9 miles    
Events Rain    
T = Trace of Precipitation, MM = Missing Value Source: NWS Daily Summary

Daily Weather History Graph

Daily Weather History Graph

Search for Another Location

Airport or City:

Trip Planner

Search our weather history database for the weather conditions in past years. The results will help you decide how hot, cold, wet, or windy it might be!

Date:

Astronomy

Jul. 04, 2013 Rise Set
Actual Time 5:21 AM CDT 7:56 PM CDT
Civil Twilight 4:51 AM CDT 8:27 PM CDT
Nautical Twilight 4:13 AM CDT 9:04 PM CDT
Astronomical Twilight 3:31 AM CDT 9:46 PM CDT
Moon 2:35 AM CDT (7/4) 5:02 PM CDT (7/4)
Length of Visible Light 15h 35m
Length of Day
14h 35m
Waning Crescent, 11% of the Moon is Illuminated
Jul 4
Waning Crescent
Jul 8
New
Jul 15
First Quarter
Jul 22
Full
Jul 29
Last Quarter

Hourly Weather History & Observations

Time (CDT) Temp. Dew Point Humidity Pressure Visibility Wind Dir Wind Speed Gust Speed Precip Events Conditions
12:15 AM 65.7 °F 64.8 °F 97% 30.21 in 10.0 mi Calm Calm - N/A   Drizzle
12:35 AM 65.3 °F 64.8 °F 98% 30.21 in 10.0 mi Calm Calm - N/A Rain Rain
12:55 AM 65.3 °F 64.4 °F 97% 30.21 in 10.0 mi Calm Calm - N/A Rain Rain
1:15 AM 65.3 °F 64.4 °F 97% 30.21 in 10.0 mi Calm Calm - N/A Rain Light Rain
1:35 AM 65.3 °F 64.4 °F 97% 30.21 in 10.0 mi Calm Calm - 0.01 in   Drizzle
1:55 AM 65.3 °F 64.4 °F 97% 30.20 in 10.0 mi Calm Calm - 0.01 in Rain Light Rain
2:15 AM 65.3 °F 64.4 °F 97% 30.20 in 10.0 mi Calm Calm - 0.01 in Rain Light Rain
2:35 AM 65.3 °F 64.4 °F 97% 30.19 in 10.0 mi Calm Calm - 0.02 in Rain Light Rain
2:55 AM 64.9 °F 64.4 °F 98% 30.20 in 10.0 mi Calm Calm - 0.03 in Rain Light Rain
3:15 AM 65.3 °F 64.6 °F 98% 30.20 in 7.0 mi Calm Calm - 0.02 in Rain Rain
3:35 AM 65.3 °F 64.6 °F 98% 30.21 in 7.0 mi Calm Calm - 0.05 in Rain Light Rain
3:55 AM 64.9 °F 64.6 °F 99% 30.19 in 10.0 mi Calm Calm - 0.07 in Rain Light Rain
4:15 AM 64.9 °F 64.6 °F 99% 30.18 in 10.0 mi Calm Calm - 0.01 in Rain Light Rain
4:35 AM 64.9 °F 64.8 °F 99% 30.18 in 10.0 mi Calm Calm - 0.02 in Rain Light Rain
4:55 AM 65.3 °F 64.6 °F 98% 30.18 in 10.0 mi Calm Calm - 0.04 in Rain Light Rain
5:15 AM 64.9 °F 64.6 °F 99% 30.19 in 10.0 mi Calm Calm - N/A   Overcast
5:35 AM 65.3 °F 64.4 °F 97% 30.21 in 10.0 mi Calm Calm - N/A   Overcast
5:55 AM 65.7 °F 64.4 °F 96% 30.21 in 10.0 mi SW 4.6 mph - N/A Rain Rain
6:15 AM 65.5 °F 64.4 °F 96% 30.21 in 10.0 mi Calm Calm - N/A Rain Light Rain
6:35 AM 65.8 °F 64.0 °F 94% 30.21 in 10.0 mi Calm Calm - N/A Rain Rain
6:55 AM 66.2 °F 64.6 °F 94% 30.21 in 10.0 mi Calm Calm - N/A   Overcast
7:15 AM 66.6 °F 65.1 °F 95% 30.21 in 10.0 mi Calm Calm - N/A   Overcast
7:35 AM 66.6 °F 64.8 °F 94% 30.21 in 10.0 mi Calm Calm - 0.01 in Rain Light Rain
7:55 AM 67.1 °F 64.4 °F 91% 30.21 in 10.0 mi South 3.5 mph - 0.02 in   Drizzle
8:15 AM 67.1 °F 64.6 °F 92% 30.21 in 10.0 mi Calm Calm - N/A Rain Light Rain
8:35 AM 67.5 °F 64.8 °F 91% 30.21 in 10.0 mi Calm Calm - 0.01 in Rain Light Rain
8:55 AM 68.0 °F 65.3 °F 91% 30.21 in 10.0 mi Calm Calm - 0.01 in   Light Drizzle
9:15 AM 68.2 °F 64.9 °F 89% 30.21 in 10.0 mi Calm Calm - N/A Rain Light Rain
9:35 AM 68.4 °F 65.5 °F 90% 30.21 in 10.0 mi Calm Calm - N/A Rain Light Rain
9:55 AM 68.9 °F 65.7 °F 89% 30.21 in 10.0 mi Calm Calm - N/A   Light Drizzle
10:15 AM 69.3 °F 66.0 °F 89% 30.21 in 10.0 mi Calm Calm - N/A Rain Light Rain
10:35 AM 69.3 °F 65.8 °F 89% 30.21 in 10.0 mi Calm Calm - N/A Rain Rain
10:55 AM 70.2 °F 66.7 °F 89% 30.19 in 10.0 mi Calm Calm - N/A Rain Light Rain
11:15 AM 70.7 °F 66.6 °F 87% 30.19 in 10.0 mi Calm Calm - N/A   Overcast
11:35 AM 71.8 °F 67.1 °F 85% 30.19 in 10.0 mi Calm Calm - N/A   Overcast
11:55 AM 72.3 °F 67.1 °F 84% 30.18 in 10.0 mi Calm Calm - N/A   Overcast
12:15 PM 73.8 °F 67.8 °F 82% 30.18 in 10.0 mi Calm Calm - N/A   Overcast
12:35 PM 74.8 °F 68.0 °F 79% 30.18 in 10.0 mi SSE 4.6 mph - N/A   Overcast
12:55 PM 75.9 °F 68.7 °F 78% 30.18 in 10.0 mi Calm Calm - N/A   Overcast
1:15 PM 76.1 °F 68.5 °F 77% 30.17 in 10.0 mi East 3.5 mph - N/A   Mostly Cloudy
1:35 PM 75.4 °F 68.7 °F 80% 30.17 in 10.0 mi Calm Calm - N/A Rain Light Rain
1:55 PM 75.4 °F 69.3 °F 81% 30.16 in 5.0 mi Calm Calm - 0.01 in Rain Rain
2:15 PM 75.4 °F 69.3 °F 81% 30.16 in 10.0 mi Calm Calm - N/A   Overcast
2:35 PM 75.9 °F 69.3 °F 80% 30.15 in 10.0 mi Calm Calm - N/A   Overcast
2:55 PM 77.4 °F 69.8 °F 77% 30.14 in 10.0 mi East 3.5 mph - N/A   Mostly Cloudy
3:15 PM 77.7 °F 69.3 °F 75% 30.14 in 10.0 mi Calm Calm - N/A   Scattered Clouds
3:35 PM 77.0 °F 68.5 °F 75% 30.14 in 10.0 mi SE 3.5 mph - N/A   Scattered Clouds
3:55 PM 76.5 °F 69.3 °F 78% 30.14 in 10.0 mi Calm Calm - N/A   Mostly Cloudy
4:15 PM 77.2 °F 69.4 °F 77% 30.13 in 10.0 mi Calm Calm - N/A   Mostly Cloudy
4:35 PM 77.0 °F 69.3 °F 77% 30.13 in 10.0 mi Calm Calm - N/A   Mostly Cloudy
4:55 PM 77.0 °F 69.8 °F 78% 30.12 in 10.0 mi Calm Calm - N/A   Mostly Cloudy
5:15 PM 75.2 °F 71.6 °F 89% 30.12 in 1.8 mi Calm Calm - 0.06 in Rain Rain
5:35 PM 74.5 °F 72.7 °F 94% 30.11 in 10.0 mi WNW 3.5 mph - 0.08 in Rain Rain
5:55 PM 73.9 °F 72.5 °F 95% 30.11 in 7.0 mi SE 3.5 mph - 0.09 in Rain Light Rain
6:15 PM 73.4 °F 72.3 °F 96% 30.11 in 2.0 mi Calm Calm - 0.10 in Rain Light Rain
6:35 PM 73.8 °F 69.6 °F 87% 30.12 in 10.0 mi South 4.6 mph - 0.10 in   Overcast
6:55 PM 73.4 °F 69.8 °F 88% 30.13 in 10.0 mi Calm Calm - 0.10 in   Mostly Cloudy
7:15 PM 73.4 °F 69.6 °F 88% 30.14 in 10.0 mi South 4.6 mph - N/A   Drizzle
7:35 PM 72.7 °F 69.3 °F 89% 30.15 in 10.0 mi ESE 4.6 mph - 0.01 in Rain Rain
7:55 PM 72.3 °F 69.4 °F 91% 30.15 in 10.0 mi Calm Calm - 0.01 in Rain Light Rain
8:15 PM 71.6 °F 69.4 °F 93% 30.15 in 10.0 mi Calm Calm - N/A Rain Light Rain
8:35 PM 70.9 °F 69.8 °F 96% 30.15 in 7.0 mi Calm Calm - 0.01 in Rain Light Rain
8:55 PM 70.5 °F 69.8 °F 98% 30.16 in 0.8 mi Calm Calm - 0.35 in Rain Heavy Rain
9:15 PM 69.8 °F 68.9 °F 97% 30.17 in 1.2 mi Calm Calm - 0.36 in Rain Heavy Rain
9:35 PM 70.0 °F 68.7 °F 96% 30.17 in 2.5 mi Calm Calm - 0.47 in Rain Heavy Rain
9:55 PM 69.8 °F 69.3 °F 98% 30.17 in 5.0 mi Calm Calm - 0.49 in Rain Light Rain
10:15 PM 69.8 °F 69.3 °F 98% 30.18 in 5.0 mi Calm Calm - 0.02 in Rain Light Rain
10:35 PM 69.8 °F 69.3 °F 98% 30.17 in 5.0 mi Calm Calm - 0.03 in Rain Light Rain
10:55 PM 69.8 °F 68.9 °F 97% 30.17 in 7.0 mi Calm Calm - 0.03 in Rain Rain
11:15 PM 69.6 °F 68.4 °F 96% 30.18 in 7.0 mi Calm Calm - 0.02 in Rain Light Rain
11:35 PM 69.3 °F 68.5 °F 98% 30.18 in 7.0 mi Calm Calm - 0.03 in Rain Light Rain
11:55 PM 69.1 °F 67.6 °F 95% 30.17 in 10.0 mi Calm Calm - 0.04 in Rain Light Rain